GW2822 Weather Reports


time (UTC)temp
C
wind
direction
speed
KPH
gust
KPH
rain 1hr
cm
rain 24hr
cm
rain mn
cm
humidity
%
barometer
mb
20260505034535 21 76 6.4 16.1 0.00 0.00 0.00 84 1006.9
20260505034051 21 153 6.4 14.5 0.00 0.00 0.00 84 1006.8
20260505033508 21 203 6.4 16.1 0.00 0.00 0.00 84 1006.8
20260505033033 21 148 6.4 16.1 0.00 0.00 0.00 83 1006.8
20260505032537 21 151 1.6 11.3 0.00 0.00 0.00 83 1006.9
20260505032055 21 147 1.6 11.3 0.00 0.00 0.00 83 1006.9
20260505031514 21 184 4.8 11.3 0.00 0.00 0.00 82 1006.8
20260505031022 21 164 4.8 11.3 0.00 0.00 0.00 82 1006.8
20260505030543 22 167 3.2 12.9 0.00 0.00 0.00 82 1006.9
20260505030031 22 160 1.6 11.3 0.00 0.00 0.00 81 1007.0
20260505025548 22 176 3.2 12.9 0.00 0.00 0.00 81 1007.0
20260505025010 22 149 6.4 12.9 0.00 0.00 0.00 81 1007.1
20260505024530 22 181 6.4 16.1 0.00 0.00 0.00 80 1007.1
20260505024037 22 187 6.4 16.1 0.00 0.00 0.00 80 1007.0
20260505023551 22 173 6.4 14.5 0.00 0.00 0.00 80 1006.9
20260505023009 22 174 6.4 14.5 0.00 0.00 0.00 79 1006.9
20260505022523 22 203 6.4 9.7 0.00 0.00 0.00 78 1006.8
20260505022037 22 165 1.6 11.3 0.00 0.00 0.00 77 1006.8
20260505021549 22 171 3.2 9.7 0.00 0.00 0.00 77 1006.8
20260505021011 22 170 1.6 6.4 0.00 0.00 0.00 76 1006.8
20260505020521 22 133 3.2 9.7 0.00 0.00 0.00 76 1006.7
20260505020018 22 169 3.2 11.3 0.00 0.00 0.00 75 1006.6
20260505015525 23 157 0.0 4.8 0.00 0.00 0.00 75 1006.6
20260505015043 23 134 0.0 3.2 0.00 0.00 0.00 75 1006.5
20260505014604 23 163 0.0 8.0 0.00 0.00 0.00 74 1006.5
20260505014014 23 163 1.6 8.0 0.00 0.00 0.00 74 1006.6
20260505013523 23 190 1.6 11.3 0.00 0.00 0.00 74 1006.5
20260505013039 23 154 4.8 11.3 0.00 0.00 0.00 73 1006.5
20260505012551 23 192 3.2 11.3 0.00 0.00 0.00 73 1006.5
20260505012007 23 171 8.0 11.3 0.00 0.00 0.00 73 1006.5
20260505011524 23 159 6.4 16.1 0.00 0.00 0.00 72 1006.5
20260505011034 23 199 4.8 16.1 0.00 0.00 0.00 72 1006.6
20260505010553 24 178 4.8 16.1 0.00 0.00 0.00 71 1006.5
20260505010046 24 165 8.0 16.1 0.00 0.00 0.00 71 1006.6
20260505005504 24 207 6.4 19.3 0.00 0.00 0.00 70 1006.6
20260505005013 24 189 8.0 19.3 0.00 0.00 0.00 70 1006.5
20260505004527 25 183 8.0 19.3 0.00 0.00 0.00 69 1006.6
20260505004036 25 180 11.3 17.7 0.00 0.00 0.00 69 1006.5
20260505003552 25 146 8.0 19.3 0.00 0.00 0.00 69 1006.4
20260505003005 25 177 9.7 19.3 0.00 0.00 0.00 68 1006.4
20260505002518 25 182 8.0 24.1 0.00 0.00 0.00 68 1006.3
20260505002029 25 193 14.5 24.1 0.00 0.00 0.00 67 1006.4
20260505001545 25 229 11.3 25.7 0.00 0.00 0.00 67 1006.4
20260505001058 25 203 11.3 22.5 0.00 0.00 0.00 67 1006.4
20260505001008 25 159 11.3 22.5 0.00 0.00 0.00 67 1006.4
20260505000518 25 175 11.3 25.7 0.00 0.00 0.00 66 1006.5
20260505000015 25 175 12.9 25.7 0.00 0.00 0.00 66 1006.4
20260504235522 25 159 12.9 25.7 0.00 0.00 0.00 66 1006.4
20260504235041 25 165 12.9 27.4 0.00 0.00 0.00 66 1006.5
20260504234552 25 163 17.7 27.4 0.00 0.00 0.00 66 1006.6
20260504234013 25 130 12.9 27.4 0.00 0.00 0.00 66 1006.5
20260504233520 25 166 8.0 27.4 0.00 0.00 0.00 66 1006.6
20260504233035 25 150 12.9 30.6 0.00 0.00 0.00 66 1006.8
20260504232544 26 164 11.3 30.6 0.00 0.00 0.00 65 1006.9
20260504232058 26 194 20.9 29.0 0.00 0.00 0.00 64 1006.8
20260504231512 26 190 11.3 35.4 0.00 0.00 0.00 65 1006.9
20260504231028 26 198 19.3 35.4 0.00 0.00 0.00 65 1007.0
20260504230542 26 174 12.9 25.7 0.00 0.00 0.00 65 1006.9
20260504230034 26 165 14.5 27.4 0.00 0.00 0.00 65 1006.9
20260504225546 26 160 16.1 29.0 0.00 0.00 0.00 64 1007.1
20260504225057 26 184 11.3 29.0 0.00 0.00 0.00 64 1007.2
20260504224514 26 184 12.9 30.6 0.00 0.00 0.00 65 1007.5
20260504224024 26 181 16.1 24.1 0.00 0.00 0.00 64 1007.5
20260504223540 26 151 12.9 30.6 0.00 0.00 0.00 65 1007.4
20260504223049 26 190 14.5 35.4 0.00 0.00 0.00 64 1007.6
20260504222509 26 163 16.1 35.4 0.00 0.00 0.00 64 1007.5
20260504222019 26 155 16.1 29.0 0.00 0.00 0.00 64 1007.5
20260504221532 26 203 17.7 29.0 0.00 0.00 0.00 65 1007.7
20260504221044 26 161 12.9 32.2 0.00 0.00 0.00 65 1007.6
20260504220507 26 155 19.3 32.2 0.00 0.00 0.00 65 1007.7
20260504220056 26 161 12.9 27.4 0.00 0.00 0.00 65 1007.7
20260504215510 26 164 12.9 24.1 0.00 0.00 0.00 65 1007.7
20260504215023 26 165 14.5 24.1 0.00 0.00 0.00 65 1007.6
20260504214536 26 182 16.1 27.4 0.00 0.00 0.00 66 1007.7
20260504214051 26 196 14.5 24.1 0.00 0.00 0.00 66 1007.7
20260504213510 26 180 12.9 33.8 0.00 0.00 0.00 66 1007.7
20260504213023 26 184 17.7 33.8 0.00 0.00 0.00 65 1007.8
20260504212534 26 213 9.7 24.1 0.00 0.00 0.00 66 1007.8
20260504212052 26 198 12.9 25.7 0.00 0.00 0.00 65 1007.9
20260504211513 26 205 12.9 25.7 0.00 0.00 0.00 66 1008.0
20260504211017 26 176 17.7 25.7 0.00 0.00 0.00 64 1008.2
20260504210528 26 168 14.5 30.6 0.00 0.00 0.00 64 1008.1
20260504210033 26 182 14.5 29.0 0.00 0.00 0.00 64 1008.1
20260504205538 26 178 9.7 29.0 0.00 0.00 0.00 64 1008.2
20260504205045 26 210 16.1 25.7 0.00 0.00 0.00 63 1008.5
20260504204505 26 182 16.1 27.4 0.00 0.00 0.00 63 1008.6
20260504204018 27 192 17.7 25.7 0.00 0.00 0.00 63 1008.5
20260504203535 27 164 11.3 25.7 0.00 0.00 0.00 65 1008.6
20260504203056 26 186 16.1 25.7 0.00 0.00 0.00 64 1008.7
20260504202600 26 159 14.5 25.7 0.00 0.00 0.00 64 1008.9
20260504202502 26 137 14.5 25.7 0.00 0.00 0.00 64 1008.9
20260504202012 26 236 11.3 30.6 0.00 0.00 0.00 64 1009.0
20260504201526 27 134 14.5 33.8 0.00 0.00 0.00 62 1009.0
20260504201037 27 176 12.9 27.4 0.00 0.00 0.00 63 1008.9
20260504200552 27 165 14.5 25.7 0.00 0.00 0.00 63 1009.2
20260504200042 26 133 12.9 25.7 0.00 0.00 0.00 64 1009.1
20260504195555 26 157 14.5 27.4 0.00 0.00 0.00 64 1009.2
20260504195014 26 201 12.9 29.0 0.00 0.00 0.00 63 1009.4
20260504194523 26 143 14.5 25.7 0.00 0.00 0.00 65 1009.3
20260504194040 26 151 14.5 22.5 0.00 0.00 0.00 64 1009.4
20260504193552 26 244 12.9 27.4 0.00 0.00 0.00 64 1009.4
20260504193009 26 165 14.5 35.4 0.00 0.00 0.00 63 1009.5
20260504192523 26 221 19.3 33.8 0.00 0.00 0.00 63 1009.6
20260504192037 26 228 17.7 37.0 0.00 0.00 0.00 64 1009.6
20260504191552 26 222 19.3 37.0 0.00 0.00 0.00 64 1009.7
20260504191003 26 198 12.9 22.5 0.00 0.00 0.00 65 1009.7
20260504190516 26 200 12.9 22.5 0.00 0.00 0.00 65 1009.9
20260504190016 25 191 14.5 30.6 0.00 0.00 0.00 65 1009.9
20260504185527 25 164 16.1 30.6 0.00 0.00 0.00 65 1009.9
20260504185043 25 169 12.9 27.4 0.00 0.00 0.00 66 1010.0
20260504184554 25 166 12.9 27.4 0.00 0.00 0.00 65 1010.1
20260504184007 25 209 16.1 29.0 0.00 0.00 0.00 65 1010.2
20260504183517 25 198 12.9 29.0 0.00 0.00 0.00 65 1010.3
20260504183031 25 167 12.9 29.0 0.00 0.00 0.00 67 1010.4
20260504182541 25 211 14.5 27.4 0.00 0.00 0.00 66 1010.5
20260504182055 25 180 9.7 27.4 0.00 0.00 0.00 69 1010.7
20260504181507 24 161 16.1 24.1 0.00 0.00 0.00 67 1010.7
20260504181024 24 163 11.3 24.1 0.00 0.00 0.00 68 1010.8
20260504180533 24 179 12.9 30.6 0.00 0.00 0.00 69 1010.7
20260504180028 23 197 19.3 30.6 0.00 0.00 0.00 69 1010.7
20260504175543 23 198 11.3 29.0 0.00 0.00 0.00 69 1010.7
20260504175057 23 178 11.3 24.1 0.00 0.00 0.00 70 1010.8
20260504174510 23 207 11.3 24.1 0.00 0.00 0.00 71 1011.0
20260504174021 23 187 12.9 24.1 0.00 0.00 0.00 70 1011.1
20260504173537 23 178 12.9 24.1 0.00 0.00 0.00 70 1011.1
20260504173102 23 209 11.3 22.5 0.00 0.00 0.00 70 1011.2
20260504172509 23 178 16.1 24.1 0.00 0.00 0.00 70 1011.3
20260504172019 23 231 14.5 32.2 0.00 0.00 0.00 70 1011.2
20260504171537 23 188 19.3 32.2 0.00 0.00 0.00 71 1011.3
20260504171043 23 130 12.9 32.2 0.00 0.00 0.00 73 1011.4
20260504170556 23 206 14.5 25.7 0.00 0.00 0.00 74 1011.7
20260504151018 19 223 11.3 30.6 0.00 0.00 0.00 82 1012.4
20260504150528 19 168 11.3 24.1 0.00 0.00 0.00 82 1012.3
20260504141035 17 178 9.7 24.1 0.00 0.00 0.00 86 1012.4
20260504140551 17 147 12.9 24.1 0.00 0.00 0.00 86 1012.3
20260504130506 16 196 3.2 12.9 0.00 0.00 0.00 88 1012.6
20260504110557 15 183 0.0 1.6 0.00 0.00 0.00 87 1012.2
20260504100527 15 171 0.0 6.4 0.00 0.00 0.00 85 1012.7
20260504081558 16 154 1.6 11.3 0.00 0.00 0.00 81 1013.4
20260504081013 16 173 4.8 9.7 0.00 0.00 0.00 81 1013.3
20260504080523 16 153 3.2 11.3 0.00 0.00 0.00 81 1013.3
20260504050527 17 171 6.4 12.9 0.00 0.00 0.00 70 1015.6
20260504050020 18 142 4.8 16.1 0.00 0.00 0.00 70 1015.6
20260504045531 18 184 6.4 17.7 0.00 0.00 0.00 70 1015.6
20260504045043 18 134 8.0 17.7 0.00 0.00 0.00 69 1015.5
20260504044511 18 135 6.4 16.1 0.00 0.00 0.00 69 1015.6
20260504044013 18 144 6.4 14.5 0.00 0.00 0.00 69 1015.6
20260504043532 18 165 4.8 12.9 0.00 0.00 0.00 69 1015.7
20260504043054 18 125 4.8 12.9 0.00 0.00 0.00 69 1015.7
20260504042504 18 109 6.4 14.5 0.00 0.00 0.00 69 1015.5
20260504042013 18 159 4.8 14.5 0.00 0.00 0.00 69 1015.7
20260504041539 18 152 8.0 14.5 0.00 0.00 0.00 68 1015.7
20260504041039 18 142 3.2 12.9 0.00 0.00 0.00 68 1015.7
20260504040559 17 161 4.8 12.9 0.00 0.00 0.00 68 1015.7
20260504040050 17 180 3.2 11.3 0.00 0.00 0.00 68 1015.8
20260504035507 17 136 3.2 12.9 0.00 0.00 0.00 68 1015.7